Location: Asheville, NC
(35.6000°N, 82.5500°W)
Time: 12:55:02
(UTC-05:00)

NO-84 - Pass Details

Date: 03 January 2018
Orbit: 336 x 568 km, 55.0° (Epoch: 15 January)

Event Time Altitude Azimuth Distance (km) Brightness Sun altitude
Exits shadow 07:07:24 - 325° (NW) 1,788 ? -6.8°
Reaches altitude 10° 07:08:13 10° 328° (NNW) 1,464 ? -6.7°
Maximum altitude 07:11:24 50° 45° (NE) 554 ? -6.1°
Drops below altitude 10° 07:14:52 10° 122° (ESE) 1,587 ? -5.4°
Sets 07:17:08 0° 127° (SE) 2,505 ? -5.0°
